INTELSAT 33E DEB, 62000

Orbit data source: Space-Track

INTELSAT 33E DEB, 62000 is space debris in GEO originally from a launch on Wed, 24 Aug 2016 UTC launched from the French Guiana (FRGUI). Debris objects in space refer to the collection of defunct objects orbiting the Earth. Examples of debris include non-operational satellites, rocket bodies, and fragments generated from explosions, collisions, or faulty payload assembly.

Loading next visibility...
Identifier
62000, 2016-053S
Orbit
GEO
Country
Flag of UnknownUnknown / ITSO
Related business
Manufacturer
Boeing/ES
Mission
Spacecraft
Bus & Motor
Unknown
Mass
Unknown
Launch date (UTC)
2016-08-24 (9 years ago)
Launch vehicle
Unknown
Launch site
French Guiana (FRGUI)
Object type
Payload
Rocket body
Debris
Shape & HBR
Unknown shape, 1.1 m
Radar Cross Section
RCS unknown

Expand to show TLE details & history
Last TLE update: 3 weeks ago

TLE from 3 weeks ago
0 INTELSAT 33E DEB
1 62000U 16053S   25278.50677545 -.00000129  00000-0  00000-0 0  9999
2 62000   1.0487 100.7392 0024544  44.4026 317.2964  1.00113991  3540
Epoch: 2025-10-05T12:09Z
TLE epoch observation values (Epoch: 2025-10-05T12:09:45.398Z)
Latitude
0.00001°
Longitude
-94.64736°
Altitude
35,754.774 km
Speed
3.079 km/s
True Right ascension
06h 48m 51s
True Declination
0° 00' 00"
Sunlit
Object was in daylight at epoch
Visualization orbit readout
Latitude
Unknown
Longitude
Unknown
Altitude
Unknown
Speed
Unknown
Apparent Right ascension
Unknown
Apparent Declination
Unknown
Sunlit
N/A
Visualization observer readout
Local Sidereal Time
05:26:53
Azimuth
Unknown
Elevation
Unknown
Doppler factor
Unknown
Orbital elements
Apogee altitude
35,935.558 km
Perigee altitude
35,728.357 km
Semi-major axis
42,210.094 km
Eccentricity
0.00245
Inclination
1.0487°
RAAN
100.7392°
Arg. of periapsis
44.4026°
True anomaly
317.10522°
Mean anomaly
317.2964°
Eccentric anomaly
317.20085°
Mean motion
0.25028 °/min
Orbital period
1,438.41 mins
BSTAR
0
Loading maneuver chart data...
Computing Atmospheric mass density...
Loading historical data...
Loading historical data...
Loading historical data...
Loading historical data...
Loading historical data...
Loading historical data...
Loading historical data...

Documentation

Showing up to 5 results
|